Location: Lane
(33.5226°N, 79.8788°W)
Time: 06:06:49
(UTC+00:00)

SR - Pass Details

Date: 26 September 2022
Orbit: 577 x 875 km, 66.7° (Epoch: 27 November)

Event Time Altitude Azimuth Distance (km) Brightness Sun altitude
Rises 02:17:49 0° 170° (S) 3,345 - -38.2°
Reaches altitude 10° 02:20:40 10° 156° (SSE) 2,453 - -38.7°
Maximum altitude 02:25:05 23° 106° (ESE) 1,735 - -39.5°
Drops below altitude 10° 02:29:37 10° 55° (NE) 2,526 - -40.3°
Sets 02:32:35 0° 42° (NE) 3,469 - -40.8°
